[[{"header":{"parameterUnit":"m.s-1","parameterCategory":1,"la1":30.2992,"la2":30.254,"lo1":-89.0895,"lo2":-89.0443,"dy":0.0025,"dx":0.0025,"nx":19,"ny":19,"refTime":"2026-05-17T09:00:00:Z","depth":0,"parameterNumber":2,"parameterNumberName":"U-component_of_WINDS"},"data":[0,0,0,-3.5586,-3.5587,-3.5663,-3.5663,-3.5772,-3.5773,0,0,0,0,0,0,0,0,0,0,0,-3.557,-3.5571,-3.5585,-3.5588,-3.5663,-3.5663,-3.5771,-3.5773,0,0,0,0,0,0,0,0,0,0,0,-3.557,-3.5571,-3.5572,-3.5588,-3.5663,-3.5663,-3.5771,-3.571,0,0,0,0,0,0,0,0,0,0,-3.5635,-3.5628,-3.5571,-3.5572,-3.5588,-3.5663,-3.5663,-3.5707,-3.5714,-3.5742,0,-3.577,0,-3.5773,-3.5781,-3.5781,0,0,0,-3.5582,-3.5622,-3.5636,-3.5573,-3.5589,-3.5663,-3.5627,-3.5711,-3.5718,-3.5752,-3.5771,-3.5775,-3.5775,-3.5781,-3.5782,-3.5964,-3.5965,0,0,-3.5578,-3.5588,-3.563,-3.5641,-3.5631,-3.5625,-3.563,-3.5715,-3.5737,-3.5772,-3.5777,-3.5777,-3.5782,-3.5783,-3.5963,-3.5965,0,0,0,-3.557,-3.5585,-3.5597,-3.5637,-3.565,-3.5627,-3.5633,-3.5733,-3.5736,-3.5778,-3.5778,-3.5783,-3.5784,-3.5962,-3.5964,-3.6027,0,0,0,-3.5567,-3.558,-3.5595,-3.5602,-3.5649,-3.5693,-3.565,-3.573,-3.574,-3.5777,-3.5783,-3.5786,-3.5961,-3.5963,-3.6022,-3.6054,0,0,0,-3.5563,-3.558,-3.5593,-3.5603,-3.5635,-3.5691,-3.5699,-3.5732,-3.574,-3.5781,-3.5786,-3.596,-3.5963,-3.6018,-3.6048,-3.6104,0,0,0,-3.5562,-3.5649,-3.5595,-3.5692,-3.5635,-3.573,-3.5698,-3.5769,-3.5812,-3.5784,-3.5961,-3.5964,-3.6017,-3.6044,-3.61,-3.6151,-3.6174,0,0,-3.5678,-3.5664,-3.572,-3.5673,-3.578,-3.5718,-3.5834,-3.5865,-3.586,-3.593,-3.5934,-3.6024,-3.6048,-3.6103,-3.6302,-3.6321,0,0,0,-3.576,-3.58,-3.5827,-3.5868,-3.5893,-3.5917,-3.5929,-3.594,-3.5998,-3.5898,-3.606,-3.6074,-3.6106,-3.613,-3.6145,-3.6171,-3.5976,-3.5976,-3.5975,-3.5937,-3.5926,-3.6018,-3.6015,-3.6056,-3.6067,-3.6098,-3.6115,-3.6093,-3.6131,-3.6151,-3.6273,-3.6302,-3.6314,-3.6341,-3.6179,-3.6179,-3.618,-3.618,-3.6104,-3.6158,-3.6126,-3.6203,-3.6191,-3.6256,-3.6269,-3.6251,-3.6309,-3.6258,-3.6285,-3.6228,-3.6334,-3.6357,-3.6184,-3.6184,-3.6183,-3.6183,-3.6182,-3.6217,-3.6241,-3.6253,-3.6311,-3.6357,-3.6352,-3.6409,-3.6396,-3.6384,-3.6412,-3.643,-3.6429,-3.6425,-3.6422,-3.6422,-3.6423,-3.6423,-3.6423,-3.6424,-3.6329,-3.634,-3.639,-3.6423,-3.6447,-3.6478,-3.6489,-3.6513,-3.6535,-3.6521,-3.6521,-3.6494,-3.6347,-3.6309,-3.643,-3.6429,-3.6428,-3.6428,-3.6427,-3.6499,-3.6458,-3.6534,-3.6559,-3.6596,-3.6642,-3.6625,-3.6674,-3.6691,-3.672,-3.6687,-3.6581,-3.6565,-3.6553,-3.6521,-3.669,-3.669,-3.669,-3.669,-3.6593,-3.6584,-3.6658,-3.6697,-3.6735,-3.6727,-3.6812,-3.6822,-3.6826,-3.6836,-3.681,-3.6768,-3.6756,-3.6747,-3.6731,-3.6701,-3.6911,-3.6912,-3.6912,-3.6696,-3.669,-3.6765,-3.6768,-3.6796,-3.6821,-3.69,-3.6946,-3.6942,-3.692,-3.6843,-3.6834,-3.6765,-3.6744,-3.6719,-3.6693,-3.6638,0,0]},{"header":{"parameterUnit":"m.s-1","parameterCategory":1,"la1":30.2992,"la2":30.254,"lo1":-89.0895,"lo2":-89.0443,"dy":0.0025,"dx":0.0025,"nx":19,"ny":19,"refTime":"2026-05-17T09:00:00:Z","depth":0,"parameterNumber":3,"parameterNumberName":"V-component_of_WINDS"},"data":[0,0,0,3.702,3.7021,3.7028,3.7028,3.7063,3.7063,0,0,0,0,0,0,0,0,0,0,0,3.7032,3.7033,3.702,3.7021,3.7028,3.7028,3.7063,3.7063,0,0,0,0,0,0,0,0,0,0,0,3.7032,3.7033,3.7034,3.7021,3.7028,3.7028,3.7063,3.7048,0,0,0,0,0,0,0,0,0,0,3.7037,3.7062,3.7033,3.7034,3.7021,3.7028,3.7028,3.7047,3.7049,3.707,0,3.7091,0,3.7078,3.7067,3.7067,0,0,0,3.701,3.706,3.7049,3.7034,3.7021,3.7028,3.7022,3.7048,3.705,3.7073,3.7092,3.7092,3.7079,3.7068,3.7068,3.7221,3.7222,0,0,3.701,3.7042,3.7048,3.7051,3.7051,3.7022,3.7022,3.7049,3.7072,3.7092,3.7093,3.7079,3.7068,3.7068,3.722,3.7221,0,0,0,3.7016,3.7042,3.703,3.7051,3.705,3.7022,3.7023,3.7071,3.7064,3.7093,3.708,3.7068,3.7069,3.7218,3.722,3.7309,0,0,0,3.7015,3.7045,3.703,3.7049,3.705,3.706,3.7045,3.7062,3.7064,3.708,3.7068,3.707,3.7217,3.7219,3.7304,3.7346,0,0,0,3.7027,3.7046,3.7052,3.7051,3.7055,3.7059,3.7054,3.7062,3.7057,3.7067,3.707,3.7216,3.7219,3.7299,3.7338,3.7394,0,0,0,3.7049,3.7132,3.7054,3.7142,3.7056,3.7115,3.7053,3.7096,3.7116,3.7069,3.7217,3.722,3.7297,3.7333,3.7389,3.7446,3.7474,0,0,3.7171,3.7148,3.7197,3.7127,3.7208,3.7111,3.7205,3.7193,3.7166,3.7205,3.7208,3.7306,3.7337,3.7393,3.7617,3.7639,0,0,0,3.7246,3.7281,3.7296,3.7316,3.731,3.7307,3.7278,3.7274,3.7305,3.7192,3.7341,3.7359,3.7391,3.7416,3.7435,3.746,3.7234,3.7233,3.7233,3.7462,3.7423,3.7501,3.7463,3.7484,3.7454,3.7467,3.7457,3.7411,3.7448,3.7458,3.7598,3.763,3.7643,3.767,3.7486,3.7487,3.7487,3.7487,3.7636,3.7679,3.7618,3.7671,3.763,3.7675,3.7651,3.7617,3.7654,3.7587,3.7613,3.7543,3.7669,3.769,3.7493,3.7492,3.7492,3.7491,3.749,3.7771,3.7785,3.7779,3.7805,3.783,3.7789,3.7827,3.7788,3.7752,3.7778,3.7785,3.7783,3.7776,3.7785,3.7785,3.7786,3.7786,3.7786,3.7787,3.7914,3.7904,3.794,3.7941,3.795,3.7956,3.7928,3.7935,3.7934,3.7903,3.7902,3.7853,3.7689,3.7647,3.7794,3.7793,3.7792,3.7791,3.7791,3.8101,3.8053,3.8108,3.8117,3.8116,3.8143,3.8094,3.8113,3.8113,3.8133,3.808,3.7965,3.7938,3.7923,3.7888,3.8088,3.8088,3.8088,3.8088,3.8214,3.8198,3.8246,3.8262,3.8274,3.8236,3.8301,3.8281,3.8253,3.8251,3.8217,3.8169,3.8155,3.8136,3.8117,3.8084,3.8329,3.8329,3.8329,3.8327,3.831,3.8372,3.8343,3.834,3.8338,3.8398,3.842,3.8379,3.8338,3.8249,3.8239,3.816,3.8136,3.8092,3.8062,3.8001,0,0]}]]